Details From KSTS - Charles M Schulz Sonoma Co
To KTVL - South Lake Tahoe
Flight Number -
Tags Generated
Created
Modified
Stats Distance 135 nm / 250 km
Max Altitude 0 ft / 0 m
Waypoints 2
Social Downloads 3
Likes 0
Share VATSIM

Download

Looking for another format? Having issues loading an existing format? Contact us
Advertisement - Login to hide

Notes

Generated

Route

KSTS KTVL

ID Type Via Altitude Latitude Longitude Leg Dist Tot Dist Heading (true) Name
O KSTS APT - 0 ft / 0 m 38.50316˚ -122.82096˚ - 0 nm - -
O KTVL APT - 0 ft / 0 m 38.90531˚ -119.99198˚ 134 nm 134 nm 79° / 81° -

Altitude Profile

Advertisement - Login to hide

KSTS

Details ICAO KSTS (STS)
Name Charles M. Schulz - Sonoma Co
Region United States
Timezone America/Los_Angeles (UTC-7.0)
Stats Elevation 128 ft / 39 m (AMSL)
Location 38.508979° -122.812922°
Runways 2
Magnetic Variation 13.680° E

METAR

KSTS 272053Z 16008KT 10SM CLR 28/13 A2991 RMK AO2 SLP121 T02780133 58017

Decode

TAF

KSTS 271727Z 2718/2818 VRB04KT P6SM FEW250 FM272100 17010KT P6SM FEW250 FM280400 15002KT P6SM SKC FM280600 00000KT P6SM SKC

Decode

Departure Runways

ID Width Length Bearing (true) Bearing (mag) Surface Threshold Offset Overrun Length
01 98 ft / 30 m 5,008 ft / 1,527 m 29.05° 15.37° Asphalt 0 ft / 0 m 0 ft / 0 m
14 151 ft / 46 m 5,122 ft / 1,561 m 157.28° 143.60° Asphalt 0 ft / 0 m 200 ft / 61 m
19 98 ft / 30 m 5,008 ft / 1,527 m 209.05° 195.37° Asphalt 0 ft / 0 m 0 ft / 0 m
32 151 ft / 46 m 5,122 ft / 1,561 m 337.28° 323.60° Asphalt 0 ft / 0 m 200 ft / 61 m

KTVL

Details ICAO KTVL (TVL)
Name South Lake Tahoe
Region United States
Timezone America/Los_Angeles (UTC-7.0)
Stats Elevation 6,264 ft / 1,909 m (AMSL)
Location 38.893882° -119.995335°
Runways 1
Magnetic Variation 13.276° E

METAR

KTVL 272053Z AUTO VRB05G15KT 10SM FEW049 17/04 A3012 RMK AO2 SLP162 T01720044 55000

Decode

TAF

KTVL 271724Z 2718/2818 04011KT P6SM FEW030 SCT060 SCT180 FM280300 VRB03KT P6SM FEW060 SCT180 FM280900 VRB03KT P6SM FEW180

Decode

Destination Runways

ID Width Length Bearing (true) Bearing (mag) Surface Threshold Offset Overrun Length
18 150 ft / 46 m 8,556 ft / 2,608 m 192.88° 179.60° Asphalt 0 ft / 0 m 0 ft / 0 m
36 150 ft / 46 m 8,556 ft / 2,608 m 12.88° 359.60° Asphalt 2,037 ft / 621 m 0 ft / 0 m

Approach Navaids

Runway Type Ident Frequency Range Bearing (true) Bearing (mag) Slope Elevation
18 Localiser ITVL 108.90 MHz 18 nm / 33 km 186.00° 172.72° - 6,264 ft / 1,909 m (AMSL)
18 DME ITVL 108.90 MHz 18 nm / 33 km - - - 6,264 ft / 1,909 m (AMSL)

Popular Alternatives